STARLINK-33800, 63576

Orbit data source: Space-Track

STARLINK-33800, 63576 is a payload satellite owned by SpaceX/Seattle (US) in LEO that was launched on Mon, 14 Apr 2025 UTC via an FALCON 9 launch vehicle from the Air Force Eastern Test Range (AFETR). Payload-class satellites include a variety of spacecraft equipped with specific instruments for various scientific and technological missions. These include communications satellites like Starlink; space stations such as the ISS; scientific satellites like the Hubble; Earth observation satellites from companies like Planet Labs, Umbra, and HawkEye 360; GPS; miniature CubeSats for education and research; and military/defense satellites.

Loading next visibility...
Identifier
63576, 2025-076H
Orbit
LEO
Country
Flag of USUS
Related business
Manufacturer
SpaceX/Seattle
Mission
Operational Commercial Communications
Bus & Motor
STARLINK V2MO, Unknown motor
Mass
575 kg wet, ~530 kg dry
Launch date (UTC)
2025-04-14 (1 year ago)
Launch vehicle
FALCON 9
Launch site
Air Force Eastern Test Range (AFETR)
Object type
Payload
Rocket body
Debris
Shape & HBR
Box + 2 Pan, 17.7 m
Radar Cross Section
36.964 m², Large (>1 m²)

Expand to show TLE details & history
Last TLE update: 9 hours ago

TLE from 9 hours ago
0 STARLINK-33800
1 63576U 25076H   26145.00238503  .00010081  00000-0  37533-3 0  9990
2 63576  42.9998 250.5318 0001246 274.5225  85.5485 15.27583219 63506
Epoch: 2026-05-25T00:03Z
TLE epoch observation values (Epoch: 2026-05-25T00:03:26.066Z)
Latitude
0.00003°
Longitude
7.07679°
Altitude
482.749 km
Speed
7.626 km/s
True Right ascension
16h 42m 07s
True Declination
0° 00' 00"
Sunlit
Object was in full shadow at epoch
Visualization orbit readout
Latitude
Unknown
Longitude
Unknown
Altitude
Unknown
Speed
Unknown
Apparent Right ascension
Unknown
Apparent Declination
Unknown
Sunlit
N/A
Visualization observer readout
Local Sidereal Time
18:35:59
Azimuth
Unknown
Elevation
Unknown
Doppler factor
Unknown
Orbital elements
Apogee altitude
485.84 km
Perigee altitude
484.13 km
Semi-major axis
6,863.122 km
Eccentricity
0.00012
Inclination
42.9998°
RAAN
250.5318°
Arg. of periapsis
274.5225°
True anomaly
85.56274°
Mean anomaly
85.5485°
Eccentric anomaly
85.55562°
Mean motion
3.81734 °/min
Orbital period
94.31 mins
BSTAR
0.00037533
Loading maneuver chart data...
Computing Atmospheric mass density...
Loading historical data...
Loading historical data...
Loading historical data...
Loading historical data...
Loading historical data...
Loading historical data...
Loading historical data...

Documentation

Showing up to 5 results
|